BADBUCHAU Weather Reports


time (UTC)temp
C
wind
direction
speed
KPH
gust
KPH
rain 1hr
cm
rain 24hr
cm
rain mn
cm
humidity
%
barometer
mb
20260507073212 8 195 24.1 0.0 0.00 0.00 0.05 91 1012.9
20260507070212 8 178 17.7 0.0 0.00 0.00 0.05 91 1012.6
20260507063211 8 178 22.5 0.0 0.00 0.00 0.05 91 1012.2
20260507060211 8 206 17.7 0.0 0.00 0.00 0.03 91 1012.0
20260507053211 8 177 22.5 0.0 0.00 0.00 0.00 91 1011.7
20260507050213 7 175 24.1 0.0 0.00 0.00 0.00 90 1011.3
20260507043211 7 175 22.5 0.0 0.00 0.00 0.00 90 1011.0
20260507040216 7 204 19.3 0.0 0.00 0.00 0.00 89 1010.7
20260507033211 7 184 17.7 0.0 0.00 0.00 0.00 88 1010.5
20260507030211 7 171 19.3 0.0 0.00 0.00 0.00 88 1010.4
20260507023211 7 163 19.3 0.0 0.00 0.00 0.00 88 1010.3
20260507020211 7 178 22.5 0.0 0.00 0.00 0.00 88 1010.3
20260507013212 7 195 22.5 0.0 0.00 0.00 0.00 90 1010.2
20260507010211 7 171 25.7 0.0 0.00 0.00 0.00 91 1010.0
20260507003209 7 165 25.7 0.0 0.00 0.00 0.00 91 1009.7
20260507000209 7 167 20.9 0.0 0.00 0.00 0.00 88 1009.7
20260506233209 8 157 20.9 0.0 0.00 0.00 0.00 87 1009.8
20260506230209 8 195 14.5 0.0 0.00 0.00 0.00 87 1009.8
20260506223209 8 175 16.1 0.0 0.00 0.00 0.00 88 1009.6
20260506220209 8 175 22.5 0.0 0.00 0.00 0.00 88 1009.4
20260506213209 8 172 20.9 0.0 0.00 0.00 0.05 88 1009.3
20260506210210 8 184 19.3 0.0 0.00 0.00 0.05 88 1009.1
20260506203210 8 168 9.7 0.0 0.00 0.00 0.05 88 1009.2
20260506200210 8 178 22.5 0.0 0.00 0.00 0.05 88 1009.0
20260506193215 8 200 24.1 0.0 0.00 0.00 0.05 87 1008.4
20260506190211 8 224 27.4 0.0 0.00 0.00 0.05 86 1008.0
20260506183209 9 180 33.8 0.0 0.00 0.00 0.05 83 1007.6
20260506180216 10 179 32.2 0.0 0.00 0.00 0.05 85 1007.4
20260506173210 10 177 20.9 0.0 0.00 0.00 0.05 90 1007.3
20260506170215 9 204 22.5 0.0 0.00 0.00 0.05 90 1006.6
20260506163210 9 219 33.8 0.0 0.00 0.00 0.05 89 1006.7
20260506160210 9 221 29.0 0.0 0.00 0.00 0.03 89 1006.4
20260506153210 9 222 38.6 0.0 0.00 0.00 0.00 90 1006.3
20260506150210 11 178 62.8 0.0 0.00 0.00 0.00 86 1005.1
20260506143210 14 190 40.2 0.0 0.00 0.00 0.00 73 1004.4
20260506140210 15 227 24.1 0.0 0.00 0.00 0.00 66 1004.0
20260506133211 15 198 11.3 0.0 0.00 0.00 0.00 68 1004.3
20260506130211 15 271 9.7 0.0 0.00 0.00 0.00 67 1004.6
20260506123210 16 258 9.7 0.0 0.00 0.00 0.00 66 1004.4
20260506120210 15 206 8.0 0.0 0.00 0.00 0.00 67 1004.3
20260506113217 15 213 6.4 0.0 0.00 0.00 0.00 69 1004.4
20260506110210 15 328 6.4 0.0 0.00 0.00 0.00 69 1004.6
20260506100213 13 306 8.0 0.0 0.00 0.00 0.00 77 1004.6
20260506093211 13 289 0.0 0.0 0.00 0.00 0.00 75 1005.1
20260506090211 13 264 6.4 0.0 0.00 0.00 0.00 75 1005.1
20260506083211 12 254 4.8 0.0 0.00 0.00 0.00 79 1005.0
20260506080212 12 231 9.7 0.0 0.00 0.00 0.00 81 1004.9